This demonstration page uses our WeatherBlox Daily Observations layout. Learn more.

36.17497, -115.13722

Hourly Observations for April 1, 2015

Temp ( °F °C ) Dew Point ( °F °C ) Humidity (%) Winds ( mph kmh ) Pressure ( in mb ) Visibility ( mi km ) Precip ( " mm )
12:53 am 00:53 Clear 68 20 20 -6.7 16 16 N 7 11 29.78 1008 10 16.0934 0 0
1:53 am 01:53 Clear 71 21.7 12 -11.1 10 10 NNW 10 17 29.76 1008 10 16.0934 0 0
2:53 am 02:53 Clear 72 22.2 14 -10 11 11 NNW 10 17 29.79 1009 10 16.0934 0 0
3:53 am 03:53 Clear 66 18.9 15 -9.4 14 14 N 3 6 29.8 1009 10 16.0934 0 0
4:53 am 04:53 Clear 68 20 2 -16.7 7 7 NNW 16 26 29.81 1010 10 16.0934 0 0
5:53 am 05:53 Clear 67 19.4 -1 -18.3 6 6 NNW 24 39 29.83 1010 10 16.0934 0 0
6:53 am 06:53 Sunny 68 20 -2 -18.9 6 6 N 13 20 29.88 1012 10 16.0934 0 0
7:53 am 07:53 Sunny 64 18 9 -13 11 11 N 13 20 29.85 1011 10 16.0934 0 0
8:53 am 08:53 Sunny 69 20.6 13 -10.6 11 11 NNW 20 31 29.93 1013 9 14.48406 0 0
9:53 am 09:53 Sunny 71 21.7 13 -10.6 10 10 N 12 19 29.97 1015 10 16.0934 0 0
10:53 am 10:53 Sunny 73 22.8 10 -12.2 9 9 NNW 17 28 29.94 1014 10 16.0934 0 0
11:53 am 11:53 Sunny 75 23.9 6 -14.4 7 7 NNW 15 24 29.93 1013 10 16.0934 0 0
12:53 pm 12:53 Sunny 76 24.4 3 -16.1 6 6 NW 15 24 29.91 1013 10 16.0934 0 0
1:53 pm 13:53 Sunny 76 24.4 3 -16.1 6 6 undefined N/A 29.88 1012 10 16.0934 0 0
2:53 pm 14:53 Sunny 78 25.6 5 -15 6 6 S 5 7 29.84 1010 10 16.0934 0 0
3:53 pm 15:53 Sunny 79 26.1 3 -16.1 5 5 S 13 20 29.81 1009 10 16.0934 0 0
4:53 pm 16:53 Sunny 79 26.1 2 -16.7 5 5 VRB 6 9 29.78 1008 10 16.0934 0 0
5:53 pm 17:53 Sunny 80 26.7 1 -17.2 4 4 WSW 9 15 29.75 1007 10 16.0934 0 0
6:53 pm 18:53 Sunny 78 25.6 5 -15 6 6 W 13 20 29.73 1007 10 16.0934 0 0
7:53 pm 19:53 Clear 76 24.4 3 -16.1 6 6 WSW 17 28 29.73 1007 10 16.0934 0 0
8:53 pm 20:53 Clear 74 23.3 5 -15 7 7 SW 14 22 29.75 1007 10 16.0934 0 0
9:53 pm 21:53 Clear 72 22.2 8 -13.3 8 8 S 10 17 29.74 1007 10 16.0934 0 0
10:53 pm 22:53 Clear 70 21.1 5 -15 8 8 S 7 11 29.73 1007 10 16.0934 0 0
11:53 pm 23:53 Clear 71 21.7 -3 -19.4 5 5 SSW 7 11 29.73 1007 10 16.0934 0 0

Powered by AerisWeather